EW5447 Weather Reports


Display with metric or nautical units.
time (UTC)temp
F
wind
direction
speed
MPH
gust
MPH
rain 1hr
in
rain 24hr
in
rain mn
in
humidity
%
barometer
mb
20260505083112 51 297 0.0 3.0 0.00 0.00 0.00 84 1013.8
20260505081600 51 38 0.0 2.0 0.00 0.00 0.00 87 1013.6
20260505080104 50 43 1.0 2.0 0.00 0.00 0.00 85 1013.6
20260505074554 51 9 1.0 2.0 0.00 0.00 0.00 84 1013.5
20260505073059 52 42 0.0 2.0 0.00 0.00 0.00 86 1013.4
20260505071550 51 57 0.0 0.0 0.00 0.00 0.00 85 1013.3
20260505070047 54 10 0.0 3.0 0.00 0.00 0.00 81 1013.1
20260505064615 55 313 1.0 5.0 0.00 0.00 0.00 78 1013.0
20260505063046 56 337 1.0 4.0 0.00 0.00 0.00 78 1012.8
20260505061544 57 10 0.0 3.0 0.00 0.00 0.00 77 1012.7
20260505060044 57 355 2.0 4.0 0.00 0.00 0.00 77 1012.4
20260505054549 58 39 0.0 2.0 0.00 0.00 0.00 75 1012.3
20260505053043 59 304 2.0 4.0 0.00 0.00 0.00 73 1012.1
20260505051542 60 314 3.0 6.0 0.00 0.00 0.00 73 1012.0
20260505041540 61 296 2.0 8.0 0.00 0.00 0.00 70 1011.0
20260505040039 62 304 2.0 9.0 0.00 0.00 0.00 69 1010.7
20260505034552 63 292 4.0 9.0 0.00 0.00 0.00 67 1010.5
20260505033039 64 294 4.0 9.0 0.00 0.00 0.00 65 1010.3
20260505031537 65 298 5.0 11.0 0.00 0.00 0.00 63 1009.9
20260505030046 67 286 8.0 14.0 0.00 0.00 0.00 60 1009.5
20260505024536 68 301 10.0 15.0 0.00 0.00 0.00 58 1009.3
20260505023042 69 315 10.0 15.0 0.00 0.00 0.00 56 1009.3
20260505021535 70 274 12.0 17.0 0.00 0.00 0.00 54 1009.0
20260505020045 71 302 11.0 16.0 0.00 0.00 0.00 52 1009.0
20260505014539 72 282 8.0 16.0 0.00 0.00 0.00 50 1009.0
20260505013039 73 296 8.0 15.0 0.00 0.00 0.00 50 1009.1
20260505011634 74 309 8.0 14.0 0.00 0.00 0.00 46 1009.1
20260505010031 75 311 9.0 14.0 0.00 0.00 0.00 46 1009.0
20260505004554 76 323 8.0 16.0 0.00 0.00 0.00 44 1008.9
20260505003030 77 311 10.0 13.0 0.00 0.00 0.00 41 1008.7
20260505001535 78 300 9.0 17.0 0.00 0.00 0.00 40 1008.5
20260505000030 79 321 8.0 15.0 0.00 0.00 0.00 42 1008.6
20260504234528 80 345 9.0 18.0 0.00 0.03 0.00 39 1008.5
20260504233026 80 329 7.0 14.0 0.00 0.03 0.00 42 1008.5
20260504231524 81 310 8.0 14.0 0.00 0.03 0.00 43 1008.4
20260504230023 80 45 3.0 10.0 0.00 0.03 0.00 49 1008.5
20260504224524 79 180 1.0 5.0 0.00 0.03 0.00 49 1008.8
20260504223017 79 229 6.0 9.0 0.00 0.03 0.00 53 1009.2
20260504221514 78 226 7.0 9.0 0.00 0.03 0.00 53 1009.5
20260504220011 77 180 7.0 10.0 0.00 0.03 0.00 56 1009.7
20260504214510 77 246 7.0 12.0 0.00 0.03 0.00 55 1009.9
20260504213019 76 178 6.0 11.0 0.00 0.03 0.00 56 1010.1
20260504211506 76 240 6.0 12.0 0.00 0.03 0.00 55 1010.1
20260504210002 76 171 3.0 10.0 0.00 0.03 0.00 58 1010.5
20260504204559 74 190 2.0 11.0 0.00 0.03 0.00 58 1010.6
20260504203056 74 153 4.0 10.0 0.00 0.03 0.00 58 1010.8
20260504201555 74 257 6.0 11.0 0.00 0.03 0.00 60 1011.0
20260504200052 73 233 6.0 12.0 0.00 0.03 0.00 60 1011.2
20260504194556 73 207 2.0 8.0 0.00 0.03 0.00 61 1011.3
20260504193049 73 227 2.0 8.0 0.00 0.03 0.00 62 1011.6
20260504191608 71 126 3.0 6.0 0.00 0.03 0.00 60 1011.8
20260504190044 71 204 5.0 9.0 0.00 0.03 0.00 64 1012.0
20260504184550 71 229 0.0 5.0 0.00 0.03 0.00 65 1012.1
20260504183038 69 134 1.0 7.0 0.00 0.03 0.00 65 1012.3
20260504181535 70 26 0.0 3.0 0.00 0.03 0.00 68 1012.4
20260504180035 69 355 0.0 5.0 0.00 0.03 0.00 69 1012.5
20260504174529 67 111 1.0 5.0 0.00 0.03 0.00 68 1012.6
20260504173026 66 169 1.0 6.0 0.00 0.03 0.00 71 1012.7
20260504171523 65 190 1.0 6.0 0.00 0.03 0.00 72 1012.8